Home   Weather   Lichfield   Past weeks

Flag for United Kingdom Past Weather in Lichfield, England, United Kingdom — Yesterday and Last 2 Weeks

Now
54 °F

Clear.


Feels Like: 51 °F
Forecast: 53 / 69 °F
Wind: 8 mph from South

Location: Birmingham / Airport

Current Time: Sep 27, 2016 at 1:26:49 AM

Latest Report: Sep 27, 2016 at 12:50 AM


Visibility: 10 mi

Pressure: 30.12 "Hg

Humidity: 94%

Dew Point: 52 °F

Location of LichfieldLocation

Past Weather in Lichfield — Graph

°F

Lichfield Temperature Yesterday

Maximum temperature yesterday: 59 °F (at 3:50 PM)
Minimum temperature yesterday: 46 °F (at 12:50 AM)
Average temperature yesterday: 53 °F

High & Low Weather Summary for the Past Weeks

 TemperatureHumidityPressure
High81 °F (Sep 13, 12:50 PM)100% (Sep 12, 12:20 AM)30.24 "Hg (Sep 12, 12:20 AM)
Low45 °F (Sep 23, 4:20 AM)51% (Sep 13, 12:50 PM)29.68 "Hg (Sep 25, 3:20 AM)
Average60 °F84%30.02 "Hg
* Reported Sep 12 12:20 AM — Sep 27 12:20 AM, Lichfield, Weather by CustomWeather, © 2016

Note: Actual official high and low records may vary slightly from our data, if they occured in-between our weather recording intervals... More about our weather records

Advertising

Lichfield Weather History for the Previous 24 Hours

Scroll right to see more
 ConditionsComfort  
Time TempWeatherWind HumidityBarometerVisibility
12:20 AM
Tue, Sep 27
54 °FClear.8 mph94%30.12 "Hg10 mi
11:50 PM
Mon, Sep 26
54 °FClear.7 mph94%30.12 "Hg10 mi
11:20 PM55 °FClear.9 mph88%30.12 "Hg10 mi
10:50 PM55 °FClear.7 mph88%30.12 "Hg10 mi
10:20 PM55 °FClear.7 mph88%30.12 "Hg10 mi
9:50 PM55 °FClear.8 mph88%30.12 "Hg10 mi
9:20 PM55 °FClear.7 mph88%30.12 "Hg10 mi
8:50 PM55 °FClear.8 mph88%30.12 "Hg10 mi
8:20 PM55 °FClear.7 mph94%30.12 "Hg10 mi
7:50 PM57 °FPassing clouds.8 mph88%30.12 "HgN/A
7:20 PM57 °FPassing clouds.8 mph88%30.12 "HgN/A
6:50 PM57 °FPartly sunny.8 mph88%30.09 "HgN/A
6:20 PM59 °FBroken clouds.9 mph82%30.09 "HgN/A
5:50 PM57 °FScattered showers. Broken clouds.8 mph94%30.09 "HgN/A
5:20 PM59 °FBroken clouds.9 mph88%30.09 "HgN/A
4:50 PM59 °FScattered clouds.9 mph88%30.09 "HgN/A
4:20 PM57 °FBroken clouds.9 mph94%30.09 "HgN/A
3:50 PM59 °FLight rain. Scattered clouds.12 mph88%30.12 "HgN/A
3:20 PM57 °FPassing clouds.12 mph94%30.12 "HgN/A
2:50 PM57 °FLight rain. Scattered clouds.9 mph94%30.12 "HgN/A
2:20 PM57 °FLight rain. Broken clouds.9 mph94%30.12 "Hg5 mi
1:50 PM57 °FRain. Broken clouds.9 mph94%30.12 "HgN/A
1:20 PM55 °FLight rain. Broken clouds.9 mph100%30.12 "Hg6 mi
12:50 PM55 °FLight rain. Broken clouds.9 mph100%30.12 "Hg6 mi
12:20 PM55 °FLight rain. Scattered clouds.8 mph100%30.12 "HgN/A
11:50 AM55 °FLight rain. Scattered clouds.9 mph94%30.12 "HgN/A
11:20 AM54 °FLight rain. Passing clouds.8 mph100%30.12 "HgN/A
10:50 AM54 °FLight rain. Passing clouds.8 mph100%30.12 "HgN/A
10:20 AM54 °FLight rain. Passing clouds.8 mph94%30.12 "HgN/A
9:50 AM54 °FSunny.7 mph94%30.12 "Hg10 mi
9:20 AM52 °FSunny.5 mph100%30.12 "Hg10 mi
8:50 AM52 °FPassing clouds.7 mph94%30.12 "HgN/A
8:20 AM50 °FScattered clouds.6 mph100%30.12 "HgN/A
7:50 AM50 °FScattered clouds.6 mph100%30.12 "HgN/A
7:20 AM50 °FSunny.5 mph100%30.12 "Hg10 mi
6:50 AM50 °FPassing clouds.3 mph100%30.12 "HgN/A
6:20 AM50 °FClear.5 mph94%30.12 "Hg10 mi
5:50 AM48 °FClear.6 mph100%30.12 "Hg10 mi
5:20 AM50 °FPassing clouds.6 mph100%30.12 "HgN/A
4:50 AM50 °FClear.6 mph100%30.12 "Hg10 mi
4:20 AM48 °FClear.6 mph100%30.12 "Hg10 mi
3:50 AM48 °FClear.2 mph100%30.12 "Hg10 mi
3:20 AM48 °FClear.3 mph100%30.12 "Hg10 mi
2:50 AM46 °FClear.5 mph100%30.12 "Hg10 mi
2:20 AM46 °FClear.6 mph100%30.12 "Hg10 mi
1:50 AM46 °FClear.6 mph100%30.12 "Hg10 mi
1:20 AM46 °FClear.6 mph100%30.12 "Hg10 mi
Weather by CustomWeather, © 2016

See weather overviewHow to use our weather pages